[[{"header":{"parameterUnit":"m.s-1","parameterCategory":1,"la1":30.2991,"la2":30.254,"lo1":-89.0895,"lo2":-89.0444,"dy":0.0017,"dx":0.0017,"nx":28,"ny":28,"refTime":"2024-08-21T09:00:00:Z","depth":0,"parameterNumber":2,"parameterNumberName":"U-component_of_WINDS"},"data":[0,0,0,0,0,0,0,0,0,0,0,0,0,0,0,0,0,0,0,0,0,0,0,0,0,0,0,0,0,0,0,0,0,0,0,0,0,0,0,0,0,0,0,0,0,0,0,0,0,0,0,0,0,0,0,0,0,0,-1.1924,-1.1924,0,-1.1992,-1.1993,-1.1993,-1.1934,-1.1932,-1.1929,-1.1927,-1.2002,-1.2006,-1.201,0,0,0,0,0,0,0,0,0,0,0,0,0,-1.1745,-1.1749,-1.1924,-1.1924,-1.1925,-1.1992,-1.1993,-1.1994,-1.1935,-1.1932,-1.1929,-1.1926,-1.2,-1.2005,-1.2011,0,0,0,0,0,0,0,0,0,0,0,0,0,-1.1819,-1.175,-1.1923,-1.1904,-1.1903,-1.1992,-1.1993,-1.1994,-1.1935,-1.1932,-1.1928,-1.1925,-1.1999,-1.2005,-1.2011,-1.2124,0,0,-1.2031,-1.2034,0,0,0,0,0,0,0,0,-1.1815,-1.1826,-1.1906,-1.1905,-1.1904,-1.1951,-1.1957,-1.2038,-1.1936,-1.1923,-1.1927,-1.1923,-1.1988,-1.1995,-1.2016,-1.2128,-1.2131,-1.2031,-1.2035,-1.2038,-1.204,0,0,0,0,0,0,0,-1.181,-1.1823,-1.1951,-1.1907,-1.1906,-1.1893,-1.1899,-1.1972,-1.1976,-1.1924,-1.192,-1.1929,-1.1987,-1.201,-1.2017,-1.2132,-1.2031,-1.2037,-1.2041,-1.2043,-1.2338,-1.2342,0,0,0,0,0,0,-1.1806,-1.1819,-1.1949,-1.1953,-1.185,-1.1899,-1.1906,-1.194,-1.1975,-1.1976,-1.1932,-1.1926,-1.2001,-1.201,-1.202,-1.2154,-1.2038,-1.2044,-1.2048,-1.2334,-1.2339,-1.2343,0,0,0,0,0,0,-1.1803,-1.1819,-1.1946,-1.1885,-1.19,-1.1906,-1.1944,-1.1943,-1.1966,-1.198,-1.1981,-1.1954,-1.1998,-1.2011,-1.2098,-1.2155,-1.2047,-1.2053,-1.233,-1.2336,-1.2341,-1.2423,0,0,0,0,0,0,-1.1798,-1.1818,-1.186,-1.1886,-1.1903,-1.2023,-1.1948,-1.1947,-1.1977,-1.1969,-1.2002,-1.2004,-1.1996,-1.2089,-1.2104,-1.2162,-1.2058,-1.2325,-1.2332,-1.2339,-1.2415,-1.2431,-1.2445,0,0,0,0,0,-1.1792,-1.1882,-1.1863,-1.1879,-1.1956,-1.2026,-1.2036,-1.2024,-1.1981,-1.2025,-1.2033,-1.2003,-1.2146,-1.2098,-1.2115,-1.2176,-1.2321,-1.233,-1.2339,-1.2409,-1.2428,-1.2444,0,0,0,0,0,0,-1.1865,-1.1885,-1.1864,-1.1965,-1.1994,-1.2016,-1.207,-1.2045,-1.2089,-1.208,-1.2065,-1.2073,-1.2165,-1.2179,-1.2125,-1.2286,-1.2227,-1.224,-1.2274,-1.2292,-1.2307,-1.2302,-1.2063,0,0,0,0,0,-1.1893,-1.1946,-1.1961,-1.2049,-1.2064,-1.2065,-1.2095,-1.2083,-1.2113,-1.2125,-1.2141,-1.2172,-1.2224,-1.2259,-1.2308,-1.2416,-1.2422,-1.2466,-1.2481,-1.2493,-1.2505,-1.2562,-1.2582,-1.2373,-1.2373,-1.2373,0,0,-1.1951,-1.1968,-1.2004,-1.2064,-1.2085,-1.2141,-1.2076,-1.2139,-1.2181,-1.2135,-1.2218,-1.223,-1.2264,-1.2362,-1.2406,-1.2377,-1.2563,-1.2504,-1.2514,-1.2519,-1.2573,-1.2593,-1.2611,-1.2379,-1.2378,-1.2377,0,0,-1.2086,-1.2105,-1.2179,-1.2201,-1.2232,-1.2232,-1.2249,-1.2275,-1.228,-1.2362,-1.2329,-1.2379,-1.2469,-1.2494,-1.2519,-1.2661,-1.2634,-1.2677,-1.2754,-1.281,-1.2827,-1.2841,-1.2891,-1.291,-1.2688,-1.2689,-1.2689,0,-1.2155,-1.2238,-1.2221,-1.2286,-1.2313,-1.2272,-1.2347,-1.237,-1.2417,-1.2437,-1.2403,-1.2513,-1.2534,-1.2636,-1.267,-1.2692,-1.2712,-1.2674,-1.2825,-1.284,-1.2853,-1.2901,-1.292,-1.2694,-1.2693,-1.2693,-1.2692,0,-1.2321,-1.2379,-1.2435,-1.2479,-1.2512,-1.2582,-1.2576,-1.2613,-1.2597,-1.26,-1.2684,-1.2706,-1.2758,-1.2781,-1.2768,-1.2882,-1.2862,-1.2827,-1.2767,-1.2878,-1.2923,-1.2941,-1.2701,-1.2699,-1.2697,-1.2696,0,0,-1.2507,-1.2538,-1.2559,-1.2577,-1.2608,-1.2653,-1.2721,-1.2769,-1.28,-1.2833,-1.289,-1.2966,-1.2932,-1.296,-1.2949,-1.2998,-1.3108,-1.2957,-1.2957,-1.2984,-1.3234,-1.3261,-1.3282,-1.309,-1.3093,-1.3096,-1.3231,0,-1.2643,-1.2759,-1.2744,-1.2856,-1.2908,-1.2869,-1.2928,-1.2953,-1.2957,-1.3003,-1.3008,-1.3062,-1.3014,-1.303,-1.3077,-1.3085,-1.3158,-1.3075,-1.3143,-1.3146,-1.3136,-1.3306,-1.3334,-1.3461,-1.3249,-1.3252,-1.3254,0,-1.2818,-1.2854,-1.2971,-1.2991,-1.3013,-1.3066,-1.3108,-1.3152,-1.318,-1.3179,-1.3209,-1.3189,-1.3257,-1.3194,-1.3288,-1.3231,-1.3258,-1.3266,-1.327,-1.3277,-1.3207,-1.3317,-1.3501,-1.352,-1.3281,-1.3279,-1.3277,0,-1.2941,-1.302,-1.3099,-1.3116,-1.3142,-1.318,-1.3193,-1.3217,-1.3247,-1.3284,-1.3303,-1.3348,-1.3373,-1.3409,-1.3401,-1.3357,-1.3497,-1.3434,-1.3498,-1.3499,-1.3531,-1.3529,-1.3722,-1.3548,-1.3547,-1.3547,-1.3547,0,-1.3095,-1.3168,-1.3154,-1.3203,-1.3283,-1.3266,-1.3346,-1.3354,-1.3375,-1.3425,-1.3394,-1.3442,-1.3428,-1.3475,-1.347,-1.3548,-1.3559,-1.3561,-1.3559,-1.3564,-1.3564,-1.3582,-1.3573,-1.3552,-1.3551,-1.355,-1.3549,0,-1.3247,-1.3241,-1.3325,-1.3341,-1.3347,-1.3406,-1.342,-1.3466,-1.3466,-1.353,-1.3544,-1.3545,-1.3599,-1.3594,-1.3655,-1.3651,-1.3748,-1.3735,-1.3738,-1.3735,-1.38,-1.3794,-1.4012,-1.4039,-1.3847,-1.3849,-1.385,0,-1.3346,-1.3401,-1.3422,-1.3452,-1.3467,-1.3517,-1.3546,-1.353,-1.3562,-1.3596,-1.3638,-1.3689,-1.3728,-1.3816,-1.3823,-1.3869,-1.3857,-1.393,-1.3864,-1.3867,-1.3858,-1.3855,-1.386,-1.3944,-1.3946,-1.3948,-1.3949,0,-1.3522,-1.3516,-1.3558,-1.3599,-1.3634,-1.3666,-1.3695,-1.3722,-1.3709,-1.3746,-1.3799,-1.383,-1.389,-1.3941,-1.3984,-1.3998,-1.3972,-1.397,-1.3987,-1.3993,-1.3992,-1.3993,-1.3774,-1.3965,-1.3964,-1.3962,-1.3962,-1.3961,-1.3651,-1.3697,-1.3718,-1.3766,-1.3785,-1.3812,-1.3856,-1.386,-1.3904,-1.3951,-1.3939,-1.3999,-1.4024,-1.4079,-1.4097,-1.4144,-1.4118,-1.4143,-1.415,-1.4156,-1.4163,-1.3984,-1.4152,-1.4152,-1.4151,-1.4151,-1.415,0,-1.3825,-1.3836,-1.388,-1.392,-1.3957,-1.3927,-1.3956,-1.399,-1.4043,-1.4067,-1.4106,-1.4167,-1.4215,-1.4224,-1.427,-1.4306,-1.4295,-1.4318,-1.4316,-1.4319,-1.4185,-1.4165,-1.4326,-1.4326,-1.4326,-1.4326,-1.4326,-1.4326,-1.392,-1.3995,-1.3991,-1.4076,-1.4087,-1.4144,-1.4163,-1.4188,-1.4207,-1.4276,-1.4315,-1.4319,-1.4338,-1.4384,-1.4427,-1.4428,-1.4447,-1.4475,-1.4472,-1.4346,-1.4329,-1.4312,-1.4293,-1.4479,-1.448,-1.4603,-1.4604,-1.4605]},{"header":{"parameterUnit":"m.s-1","parameterCategory":1,"la1":30.2991,"la2":30.254,"lo1":-89.0895,"lo2":-89.0444,"dy":0.0017,"dx":0.0017,"nx":28,"ny":28,"refTime":"2024-08-21T09:00:00:Z","depth":0,"parameterNumber":3,"parameterNumberName":"V-component_of_WINDS"},"data":[0,0,0,0,0,0,0,0,0,0,0,0,0,0,0,0,0,0,0,0,0,0,0,0,0,0,0,0,0,0,0,0,0,0,0,0,0,0,0,0,0,0,0,0,0,0,0,0,0,0,0,0,0,0,0,0,0,0,-3.1229,-3.123,0,-3.1327,-3.1328,-3.133,-3.1322,-3.132,-3.1319,-3.1317,-3.1414,-3.1418,-3.1422,0,0,0,0,0,0,0,0,0,0,0,0,0,-3.1028,-3.1032,-3.1228,-3.123,-3.1231,-3.1327,-3.1329,-3.133,-3.1322,-3.132,-3.1318,-3.1317,-3.1413,-3.1417,-3.1422,0,0,0,0,0,0,0,0,0,0,0,0,0,-3.112,-3.1033,-3.1228,-3.1239,-3.1241,-3.1327,-3.1329,-3.133,-3.1322,-3.132,-3.1318,-3.1316,-3.1411,-3.1417,-3.1423,-3.1504,0,0,-3.1441,-3.1443,0,0,0,0,0,0,0,0,-3.1115,-3.1127,-3.1236,-3.1238,-3.124,-3.131,-3.1293,-3.1388,-3.1323,-3.1291,-3.1317,-3.1315,-3.1381,-3.1389,-3.1412,-3.1508,-3.1512,-3.1441,-3.1445,-3.1448,-3.1449,0,0,0,0,0,0,0,-3.1108,-3.1123,-3.1267,-3.1237,-3.124,-3.1237,-3.1247,-3.1311,-3.1347,-3.1294,-3.1293,-3.1305,-3.1382,-3.1407,-3.1415,-3.1514,-3.1441,-3.1447,-3.145,-3.1452,-3.168,-3.1682,0,0,0,0,0,0,-3.11,-3.1118,-3.1264,-3.127,-3.1171,-3.1242,-3.1254,-3.129,-3.1346,-3.1353,-3.1307,-3.1305,-3.1398,-3.1408,-3.1418,-3.1516,-3.1448,-3.1453,-3.1456,-3.1678,-3.1681,-3.1683,0,0,0,0,0,0,-3.1096,-3.1113,-3.126,-3.1194,-3.1213,-3.1248,-3.1288,-3.1293,-3.1318,-3.1357,-3.1362,-3.1327,-3.1396,-3.141,-3.1483,-3.1519,-3.1456,-3.1461,-3.1675,-3.1678,-3.1682,-3.1712,0,0,0,0,0,0,-3.109,-3.1112,-3.1144,-3.1195,-3.1216,-3.1325,-3.1291,-3.1296,-3.1329,-3.1326,-3.1376,-3.1382,-3.1396,-3.1474,-3.1488,-3.1526,-3.1466,-3.1671,-3.1676,-3.1681,-3.1708,-3.1717,-3.1724,0,0,0,0,0,-3.1083,-3.1148,-3.1146,-3.1164,-3.1257,-3.1327,-3.1339,-3.1354,-3.1332,-3.1364,-3.1388,-3.1381,-3.1513,-3.1481,-3.1498,-3.1538,-3.1669,-3.1675,-3.168,-3.1705,-3.1715,-3.1724,0,0,0,0,0,0,-3.1099,-3.1155,-3.1153,-3.1237,-3.1277,-3.1325,-3.1366,-3.1364,-3.1411,-3.1407,-3.1422,-3.1433,-3.1506,-3.1529,-3.1493,-3.1618,-3.1588,-3.1597,-3.1601,-3.1611,-3.1618,-3.1611,-3.1471,0,0,0,0,0,-3.1113,-3.1166,-3.1211,-3.128,-3.1301,-3.133,-3.1361,-3.1369,-3.1411,-3.1428,-3.1458,-3.1498,-3.1548,-3.1581,-3.1629,-3.1712,-3.1722,-3.1747,-3.1755,-3.1761,-3.1768,-3.1812,-3.1824,-3.1702,-3.1702,-3.1701,0,0,-3.114,-3.1178,-3.121,-3.1285,-3.1317,-3.137,-3.1345,-3.1402,-3.1441,-3.1436,-3.1507,-3.1531,-3.1576,-3.1654,-3.1689,-3.1675,-3.1805,-3.1768,-3.1773,-3.1777,-3.1819,-3.1831,-3.1841,-3.1705,-3.1705,-3.1704,0,0,-3.1218,-3.1253,-3.1313,-3.1347,-3.1397,-3.1416,-3.143,-3.1479,-3.1495,-3.1567,-3.1564,-3.161,-3.1697,-3.1729,-3.1757,-3.1847,-3.1841,-3.1862,-3.1902,-3.1945,-3.1955,-3.1963,-3.1994,-3.2005,-3.1869,-3.187,-3.187,0,-3.1246,-3.1328,-3.1345,-3.1403,-3.1435,-3.1435,-3.1495,-3.1527,-3.1589,-3.1611,-3.1594,-3.1703,-3.1734,-3.1818,-3.184,-3.1863,-3.1879,-3.1856,-3.1952,-3.1961,-3.1969,-3.1999,-3.201,-3.1872,-3.1871,-3.1871,-3.1871,0,-3.1359,-3.1415,-3.1458,-3.152,-3.1557,-3.1617,-3.1641,-3.1676,-3.1682,-3.1702,-3.1774,-3.1811,-3.1866,-3.1887,-3.1893,-3.1973,-3.1962,-3.1949,-3.1918,-3.1983,-3.2011,-3.2022,-3.1875,-3.1874,-3.1873,-3.1873,0,0,-3.1448,-3.1519,-3.1535,-3.1562,-3.1618,-3.1661,-3.172,-3.1776,-3.1805,-3.1848,-3.1896,-3.197,-3.1958,-3.199,-3.1998,-3.2036,-3.2104,-3.2018,-3.2019,-3.2031,-3.2193,-3.2201,-3.2214,-3.2101,-3.2103,-3.2105,-3.2188,0,-3.153,-3.1636,-3.1653,-3.1745,-3.1796,-3.1797,-3.1848,-3.1886,-3.1907,-3.1952,-3.1974,-3.2026,-3.2007,-3.2026,-3.2063,-3.2087,-3.2136,-3.2082,-3.2144,-3.2146,-3.2131,-3.2229,-3.2238,-3.2315,-3.2199,-3.2201,-3.2203,0,-3.164,-3.1688,-3.1785,-3.1833,-3.1855,-3.1901,-3.1953,-3.1997,-3.2041,-3.2053,-3.2088,-3.2093,-3.2152,-3.212,-3.2201,-3.2163,-3.219,-3.2206,-3.2209,-3.2214,-3.2177,-3.2235,-3.2341,-3.2351,-3.222,-3.2219,-3.2218,0,-3.1694,-3.1782,-3.1852,-3.1876,-3.1934,-3.1966,-3.1991,-3.2032,-3.2065,-3.211,-3.2131,-3.2182,-3.2209,-3.2248,-3.2265,-3.2241,-3.2345,-3.2314,-3.2355,-3.2354,-3.2375,-3.2374,-3.2485,-3.2395,-3.2395,-3.2395,-3.2394,0,-3.1783,-3.1842,-3.1877,-3.1919,-3.1985,-3.2004,-3.2068,-3.2092,-3.2129,-3.2175,-3.2179,-3.2221,-3.2242,-3.2288,-3.2302,-3.2366,-3.2379,-3.2389,-3.2391,-3.2388,-3.2386,-3.2404,-3.2399,-3.2398,-3.2397,-3.2397,-3.2396,0,-3.1854,-3.188,-3.1955,-3.2004,-3.2018,-3.2064,-3.2105,-3.2146,-3.2166,-3.2225,-3.2239,-3.2271,-3.2325,-3.2347,-3.2412,-3.2422,-3.2495,-3.2494,-3.2481,-3.2481,-3.252,-3.2515,-3.2645,-3.2663,-3.2563,-3.2564,-3.2565,0,-3.1908,-3.1954,-3.2008,-3.204,-3.2067,-3.2118,-3.2151,-3.2171,-3.2205,-3.2258,-3.2292,-3.2346,-3.2391,-3.2476,-3.2504,-3.2554,-3.2554,-3.2596,-3.2561,-3.2556,-3.2553,-3.2549,-3.2553,-3.2602,-3.2603,-3.2604,-3.2604,0,-3.2002,-3.2012,-3.2061,-3.2114,-3.2154,-3.2197,-3.2238,-3.2263,-3.2289,-3.2327,-3.2383,-3.2418,-3.2486,-3.2539,-3.259,-3.2615,-3.2613,-3.2615,-3.2627,-3.2623,-3.2613,-3.2617,-3.2497,-3.2612,-3.2611,-3.261,-3.261,-3.261,-3.2065,-3.2105,-3.215,-3.2204,-3.2237,-3.2276,-3.2316,-3.2342,-3.239,-3.2447,-3.2456,-3.2515,-3.2557,-3.2626,-3.2653,-3.2698,-3.2687,-3.2705,-3.2709,-3.2712,-3.2714,-3.2607,-3.2708,-3.2708,-3.2708,-3.2707,-3.2707,0,-3.2157,-3.2186,-3.2236,-3.2294,-3.2336,-3.2333,-3.2379,-3.2413,-3.2466,-3.2506,-3.255,-3.2613,-3.2665,-3.2698,-3.2749,-3.2779,-3.278,-3.2792,-3.2789,-3.2795,-3.2722,-3.2706,-3.2791,-3.2791,-3.2791,-3.2791,-3.2791,-3.2791,-3.221,-3.2278,-3.2293,-3.2377,-3.2406,-3.2465,-3.2491,-3.2526,-3.2558,-3.2629,-3.2673,-3.2694,-3.273,-3.2785,-3.2832,-3.284,-3.2858,-3.2871,-3.2877,-3.2809,-3.28,-3.2791,-3.2776,-3.2875,-3.2875,-3.2946,-3.2947,-3.2947]}]]